FENGYUN 1C DEB

Satellite information

Favourite Embed

Satellite Type and Status

DEBRISIN ORBIT

Key statistics

Satellite FENGYUN 1C DEB at a glance.

Uptime

9617

Days in orbit

Revolutions

≈ 14.7

Per day

Orbit

SSO

Sun Synchronous Orbit

Inclination

99.1

Latest

Satellite identification and parameters

Extended collection of information and parameters for FENGYUN 1C DEB.

Object identification

Identified? True

Debris? True

Object name: FENGYUN 1C DEB

International designator: 1999-025DFV

Object number (NORAD): 33684

Object ID (CCSDS): 33684

Country: PEOPLES REPUBLIC OF CHINA (PRC)

Current information (Y/N): Y

RCS size: SMALL

Orbital parameters

Period: 97.944 minutes

Inclination: 99.082 deg

SMA: 7038.469 km

Apoapsis: 869.286 km

Periapsis: 451.382 km

RAAN: 292.5795 deg

Eccentricy: 0.02968719

Argument of periapsis: 285.5425 deg

Mean anomaly: 71.3189 deg

Mean motion: 14.70230625 rev/day

Mean motion (dot): 0.00008222 rev/day2

B* drag term: 0.00069041987 1/REarth

Two-line elements (TLE)

Creation date: Sept. 5, 2025, 7:38 p.m.

Reference frame: TEME

Reference center: EARTH

Epoch: Sept. 5, 2025, 9:13 a.m. UTC

TLE line 0: 0 FENGYUN 1C DEB

TLE line 1: 1 33684U 99025DFV 25248.38430759 .00008222 00000-0 69042-3 0 9997

TLE line 2: 2 33684 99.0820 292.5795 0296872 285.5425 71.3189 14.70230625915428

Live tracking on map

Real-time ground track for satellite FENGYUN 1C DEB.

In-orbit conjunctions

A list of the most updated potential collisions computed for object FENGYUN 1C DEB.

Target Orbit TCA Probability of collision Miss distance Type
COSMOS 921 DEB LEO 2025-05-26 00:04:21 0.0001403669 286.0 (m) DEBRIS
DELTA 1 DEB SSO 2025-05-07 22:31:49 0.0002035749 103.0 (m) DEBRIS

Associated space launch

Chinese polar orbiting meteorological satellite

FENGYUN 1C DEB was lifted into orbit during the mission ‘Long March 4B | Feng Yun 1C’, on board a Long March 4B space rocket.

The launch took place on May 10, 1999, 1:33 a.m. from Launch Complex 7.

For more information about the launch, click the button.

Launch to space Long March 4B | Feng Yun 1C
Long March 4B | Feng Yun 1C

Agency: N/A

Status: Launch Successful

Launch date: May 10, 1999, 1:33 a.m. UTC

Rocket: Long March 4B

Launch pad: Launch Complex 7

Location: Taiyuan Satellite Launch Center, People's Republic of China

...

Latest news about this satellite

There are no fresh news available about this satellite. Check back as we update our databases every day.


Newsletter sign-up

Weekly statistics, charts and insights to help you stay on top of the space industry.